Regional Weather Roundup
Issued by NWS Mobile, AL

Home | Current Version | Previous Version | Text Only | Print | Product List | Glossary On
Versions: 1 2 3 4 5 6 7 8 9 10 11 12 13 14 15 16 17 18 19 20 21 22 23 24 25 26 27 28 29
000
ASUS44 KMOB 080812
RWRMOB
REGIONAL WEATHER ROUNDUP
NATIONAL WEATHER SERVICE MOBILE AL
200 AM CST THU DEC 08 2016

NOTE: "FAIR" INDICATES FEW OR NO CLOUDS BELOW 12,000 FEET WITH NO
      SIGNIFICANT WEATHER AND/OR OBSTRUCTIONS TO VISIBILITY.

  * THESE STATIONS ARE PART OF THE UNIVERSITY OF SOUTH ALABAMA
    MESONET AND ARE NOT UNDER NWS OR FAA QUALITY CONTROL.

ALZ061>064-080900-
COASTAL ALABAMA

CITY           SKY/WX    TMP DP  RH WIND       PRES   REMARKS
MOBILE REG APT CLOUDY    52  47  83 N9        30.20R
BROOKLEY FIELD CLOUDY    54  49  83 N9        30.20S
USA CAMPUS*      N/A     52  48  87 NE5       30.19S
DOG RIVER*       N/A     52  48  87 CALM      31.00S


CITY           SKY/WX    TMP DP  RH WIND       PRES   REMARKS
GULF SHORES    CLOUDY    52  51  95 N7        30.18R

$$

ALZ051>060-080900-
INTERIOR SOUTHWEST AND SOUTH CENTRAL ALABAMA

CITY           SKY/WX    TMP DP  RH WIND       PRES   REMARKS
GREENVILLE     CLOUDY    51  42  71 N10       30.17R
EVERGREEN      CLOUDY    49  46  90 NW3       30.19R
ATMORE*          N/A     50  50 100 W7        30.21R
ANDALUSIA/OPP  CLOUDY    50  46  86 W3        30.18R
ANDALUSIA*       N/A     46  46 100 CALM      30.17R
FLORALA APT    CLOUDY    48  45  89 N3        30.20R
FLORALA*         N/A     48  48 100 CALM      30.96R

$$

FLZ001>006-080900-
WESTERN FLORIDA PANHANDLE

CITY           SKY/WX    TMP DP  RH WIND       PRES   REMARKS
PENSACOLA      PTCLDY    52  48  86 N5        30.17R
NAS PENSACOLA  CLEAR     51  47  86 N6        30.17R
MILTON         MOCLDY    47  46  97 N3        30.18S
WHTNG S FIELD  MOCLDY    51  48  89 N9        30.17F


CITY           SKY/WX    TMP DP  RH WIND       PRES   REMARKS
JAY*             N/A     48  46  93 N3        30.18S
DUKE FIELD     CLOUDY    48  46  94 NE5       30.16S
CRESTVIEW      CLOUDY    49  47  93 NE5       30.19S
VALPARAISO     MOCLDY    49  47  91 N8        30.17S
DESTIN         MOCLDY    56  50  80 N7        30.17R

$$

MSZ076-079-080900-
INTERIOR SOUTHEAST MISSISSIPPI

CITY           SKY/WX    TMP DP  RH WIND       PRES   REMARKS
LEAKESVILLE*   NOT AVBL
AGRICOLA*      NOT AVBL

$$

MARINE OBSERVATIONS

STATION/POSITION TIME  TEMP    WIND        PRES    WAVE
                       AIR SEA DIR/SP/G            HT/PER
                 (UTC) (F)     (DEG/KT/KT) (MB)    (FT/S)
PASCAGOULA       0748   56      30/  7/  8 1021.8R
PETIT BOIS ISLND 0748   57      30/ 12/ 13 1022.3R
GRAND BAY        0645   57      20/  7     1022.0S
KATRINA CUT      0730   53      30/ 14     1021.7R
CEDAR POINT      0730   56      30/ 12     1021.7R
E DAUPHIN ISLAND 0600   60      20/  8/  9 1021.1R
MIDDLE BAY LIGHT 0730           20/ 13     1022.0R
USCG MOBILE BAY  0748   53 62   10/  6/  7 1022.9R
STATE DOCKS      0748      64              1022.3R
MEAHER PARK      0730   52     360/  5     1022.7R
WEEKS BAY        0645   53                   N/A
12 S ORANGE BCH  0750   60 69   20/ 10/ 12 1021.4    1/ 6
PENSACOLA BAY    0748      64  360/  5/  8 1021.6R
64 S DAUPHIN ISL 0750   67 75   30/ 10/ 14 1020.8    1/ 7
67 S FORT MORGAN 0730   66      40/  8     1020.7R

$$

SELECTED LOCATIONS ACROSS THE REGION

CITY           SKY/WX    TMP DP  RH WIND       PRES   REMARKS
NEW ORLEANS    CLOUDY    57  56  96 E9        30.13F
GULFPORT       MOCLDY    57  52  83 N5        30.17S
PASCAGOULA AP  CLOUDY    54  48  80 NE8       30.19R
PASCAGOULA*    NOT AVBL
HATTIESBURG    CLEAR     47  45  93 N5        30.21R
LAUREL         CLEAR     45  41  87 N6        30.23R
MERIDIAN       PTCLDY    43  39  86 N6        30.24R
JACKSON        CLOUDY    48  43  82 N7        30.24R
MONTGOMERY     CLOUDY    50  40  68 NW8       30.20R
TROY           CLOUDY    50  45  83 NW9       30.18R
ASHFORD*         N/A     46  46 100 CALM      30.17R
DOTHAN         CLEAR     45  45 100 NW6       30.18R
PANAMA CITY    CLEAR     49  47  93 NW5       30.15R

$$





USA.gov is the U.S. government's official web portal to all federal, state and local government web resources and services.